Orbital Elements at Epoch 2459200.5 (2020-Dec-17.0) TDB
Reference: JPL 22 (heliocentric ecliptic J2000)
Element | Value | Uncertainty (1-sigma) | Units |
e | .05167778902326361 | 4.5822e-08 | |
a | 2.808502430706986 | 2.0879e-08 | au |
q | 2.663365234621588 | 1.2645e-07 | au |
i | 4.263557418096084 | 5.2938e-06 | deg |
node | 19.58601302807164 | 6.6606e-05 | deg |
peri | 103.4033160625311 | 8.3661e-05 | deg |
M | 170.6023471283202 | 5.0986e-05 | deg |
tp | 2458385.808595834435 (2018-Sep-24.30859583) | 0.00024243 | TDB |
period | 1719.13757598542 4.71 | 1.9171e-05 5.249e-08 | d yr |
n | .2094073243635814 | 2.3352e-09 | deg/d |
Q | 2.953639626792385 | 2.1958e-08 | au |
|
| | Orbit Determination Parameters
Additional Information
|